Regional Weather Roundup
Issued by NWS Charleston, SC

Current Version | Previous Version | Graphics & Text | Print | Product List | Glossary On
Versions: 1 2 3 4 5 6 7 8 9 10 11 12 13 14 15 16 17 18 19 20 21 22 23 24 25 26 27 28 29 30 31 32 33 34 35 36 37 38 39 40 41 42 43 44 45 46 47 48 49 50
000
ASUS42 KCHS 010712
RWRCHS

REGIONAL WEATHER ROUNDUP
NATIONAL WEATHER SERVICE CHARLESTON SC
300 AM EDT WED JUL 01 2015

NOTE: "FAIR" INDICATES FEW OR NO CLOUDS BELOW 12,000 FEET WITH NO
SIGNIFICANT WEATHER AND/OR OBSTRUCTIONS TO VISIBILITY.

NOT ALL STATIONS ARE QUALITY CONTROLLED BY THE NATIONAL
WEATHER SERVICE. USE DATA WITH CAUTION...ESPECIALLY
DEWPOINT OBSERVATIONS.

SCZ027-030-031-034>040-042>050-010800-
...SOUTHEAST SOUTH CAROLINA...

CITY           SKY/WX    TMP DP  RH WIND       PRES   REMARKS
N CHARLESTON   PTCLDY    73  69  87 SW9       30.00R
WATERFRONT PAR   N/A     76  71  84 SW7       29.97F
MOUNT PLEASANT LGT RAIN  73  70  88 SW5       30.00R
JOHNS ISLAND   FAIR      75  70  83 SW7       30.01R
PINOPOLIS      NOT AVBL
MONCKS CORNER  FAIR      72  68  88 SW6       29.99R
SUMMERVILLE    NOT AVBL
BEAUFORT MCAS  CLEAR     74  69  85 SW14      30.01R
BEAUFORT ARPT  FAIR      73  72  94 SW8       30.01S
HILTON HEAD IS CLEAR     75  72  88 S7G16     30.02F
WALTERBORO     MOSUNNY   68  68 100 SW6       30.01R
ALLENDALE      NOT AVBL

...SOUTHERN MIDLANDS AND PEE DEE...

CITY           SKY/WX    TMP DP  RH WIND       PRES   REMARKS
GEORGETOWN     NOT AVBL
KINGSTREE      NOT AVBL
ORANGEBURG     MOCLDY    70  68  93 SW3       29.99S
BARNWELL       PTSUNNY   72  70  94 W3        30.00S
AIKEN          NOT AVBL
MANNING        HVY RAIN  70  70 100 SW3       29.98S
COLUMBIA       PTCLDY    71  68  90 SW6       29.96S
SUMTER         PTCLDY    70  68  93 SW7       29.95F
FLORENCE       PTCLDY    71  69  93 SW8       29.96F
MYRTLE BEACH   PTCLDY    73  64  73 W8        30.00R
N MYRTLE BEACH PTCLDY    74  67  78 W7        29.97R

$$

GAZ063-065-086>088-099>101-113>116-118-119-134>141-150-010800-
...SOUTHEAST GEORGIA...

CITY           SKY/WX    TMP DP  RH WIND       PRES   REMARKS
SAVANNAH ARPT  CLEAR     73  68  84 SW10      30.03R
HUNTER AAF     PTCLDY    73  71  95 SW8       30.00S
FORT STEWART   MOCLDY    73  69  89 SW8       30.02R
STATESBORO     PTCLDY    71  32  23 SW5       30.02R
SYLVANIA       SUNNY     72  72  99 CALM      30.02S
CLAXTON        FAIR      70  70 100 W5        30.03S

...CSRA...CENTRAL AND FAR SOUTHEAST GEORGIA...

CITY           SKY/WX    TMP DP  RH WIND       PRES   REMARKS
THOMSON        PTCLDY    72  72  99 SW6       30.04S
AUGUSTA-BUSH   PTCLDY    70  69  97 CALM      29.98F
AUGUSTA-DANIEL PTCLDY    72  68  87 W7        29.99F
SWAINSBORO     FAIR     N/A N/A N/A W3        30.03S
VIDALIA        RAIN      72  68  88 SW7       30.04S
EASTMAN        FAIR      72  72 100 CALM      30.06S
HAZLEHURST     FAIR      72  72  99 CALM      30.05R
ALMA           MOCLDY    72  70  93 SW6       30.05S
WAYCROSS       MOCLDY    73  71  95 W7        30.07R
JESUP          FAIR      73  72  94 W3        30.05S
BAXLEY         FAIR      73  70  88 W3        30.05R
BRUNSWICK      CLOUDY    73  70  88 SW6       30.06S
SAINT SIMONS   CLOUDY    73  69  87 SW8       30.05S

$$

SCZ027-028-034-036>038-045-046-048>050-GAZ119-141-010800-
...LAKE AND SUPPLEMENTAL COASTAL OBSERVATIONS...

STATION/POSITION TIME  TEMP    WIND        PRES    WAVE   SWELL
                       AIR SEA DIR/SP/G            HT/PER HT/PER/DIR
                 (UTC) (F)     (DEG/KT/KT) (MB)    (FT/S) (FT/S/D)
UPR LAKE MARION  NOT AVBL
WINYAH BAY       0545   72     260/  6     1014.0
LAKE MURRAY      NOT AVBL
ACE BASIN NERRS  NOT AVBL
FORT PULASKI     0600   75 84  240/  5/  8 1017.0F
SAPELO ISLAND    0600   74     230/ 11     1017.0S

$$

ANZ835-935-AMZ111-154-330-350-352-354-370-450-454-472-010800-
...C-MAN AND BUOY OBSERVATIONS...

STATION/POSITION TIME  TEMP    WIND        PRES    WAVE   SWELL
                       AIR SEA DIR/SP/G            HT/PER HT/PER/DIR
                 (UTC) (F)     (DEG/KT/KT) (MB)    (FT/S) (FT/S/D)
BUOY 41004       0650   81 82  230/ 19/ 23 1015.4S   4/ 8   2/ 8
BUOY 41008       0650   77 79  250/ 16/ 17 1017.3R   2/ 4   2/130/ 8
FOLLY BEACH CMAN NOT AVBL
CAPERS NEARSHORE 0608   79     260/ 14/ 17 1015.9F
FRIPP NEARSHORE  0600   79     250/ 17/ 19 1016.0F


STATION/POSITION TIME  TEMP    WIND        PRES    WAVE   SWELL
                       AIR SEA DIR/SP/G            HT/PER HT/PER/DIR
                 (UTC) (F)     (DEG/KT/KT) (MB)    (FT/S) (FT/S/D)
5E ST. MARYS GA  0621      78                N/A     2/ 8
FRYING PAN BUOY  0650   82 80  230/ 19/ 23 1014.9F   5/ 5
BUOY 41025       0650   82 82  210/ 19/ 23 1013.4F   6/ 6   2/140/13
CAPE LOOKOUT NC  NOT AVBL
BUOY 41002       0650   81 80  230/ 16/ 19 1018.2F   6/ 9   3/170/ 9
BUOY 41010       0620   81 84  200/ 19/ 23 1019.5F
ST AUGUSTINE FL  0700   73 74  200/  6/  7 1019.9R


$$



USA.gov is the U.S. government's official web portal to all federal, state and local government web resources and services.